Powrót do katalogu

STARLINK-37327

AktywnyŁącznośćSSO
NORAD 68736·PAYLOAD·🇺🇸 United States

Wystrzelony Apr 15, 2026 z Vandenberg Space Force Base

Loading…

Następne Przeloty (najbliższe 24 godziny)

TLE

ŚwieżeSource: CelesTrak SupGP

Epoka: Sep 15, 2026, 03:21 UTC

1 68736C 26082J   26258.14006944  .00006942  00000+0  21549-3 0  2581
2 68736  97.2850 120.3255 0001801  93.9294 186.9354 15.33437459    18

Śledź STARLINK-37327 w czasie rzeczywistym z AllMySat

Download on the App Store